����������;��������(kWh)
2016-08-22 00:00;79,6
2016-08-22 00:15;78,3
2016-08-22 00:30;78,45
2016-08-22 00:45;78
2016-08-22 01:00;78,8
2016-08-22 01:15;77,7
2016-08-22 01:30;76,35
2016-08-22 01:45;78
2016-08-22 02:00;74,65
2016-08-22 02:15;76,5
2016-08-22 02:30;73,7
2016-08-22 02:45;76,65
2016-08-22 03:00;74,75
2016-08-22 03:15;77,55
2016-08-22 03:30;74,75
2016-08-22 03:45;76,7
2016-08-22 04:00;75,4
2016-08-22 04:15;76,05
2016-08-22 04:30;73,9
2016-08-22 04:45;76,25
2016-08-22 05:00;77,65
2016-08-22 05:15;79,4
2016-08-22 05:30;82,45
2016-08-22 05:45;84,05
2016-08-22 06:00;81,55
2016-08-22 06:15;103,8
2016-08-22 06:30;104,35
2016-08-22 06:45;88,05
2016-08-22 07:00;80,2
2016-08-22 07:15;87,8
2016-08-22 07:30;86,95
2016-08-22 07:45;90,25
2016-08-22 08:00;94,4
2016-08-22 08:15;106,9
2016-08-22 08:30;119
2016-08-22 08:45;132,6
2016-08-22 09:00;187,4
2016-08-22 09:15;206,6
2016-08-22 09:30;190,8
2016-08-22 09:45;189,3
2016-08-22 10:00;189,9
2016-08-22 10:15;191,55
2016-08-22 10:30;206,35
2016-08-22 10:45;230,7
2016-08-22 11:00;229,05
2016-08-22 11:15;227,45
2016-08-22 11:30;250,35
2016-08-22 11:45;292,05
2016-08-22 12:00;284,8
2016-08-22 12:15;285,85
2016-08-22 12:30;260,35
2016-08-22 12:45;258,85
2016-08-22 13:00;259,35
2016-08-22 13:15;258,5
2016-08-22 13:30;253,5
2016-08-22 13:45;238,15
2016-08-22 14:00;239,8
2016-08-22 14:15;268,15
2016-08-22 14:30;287,85
2016-08-22 14:45;266
2016-08-22 15:00;236,75
2016-08-22 15:15;211,35
2016-08-22 15:30;212,05
2016-08-22 15:45;195,65
2016-08-22 16:00;186,05
2016-08-22 16:15;183,55
2016-08-22 16:30;177,95
2016-08-22 16:45;179,6
2016-08-22 17:00;176,85
2016-08-22 17:15;170,8
2016-08-22 17:30;170,5
2016-08-22 17:45;167,8
2016-08-22 18:00;159,5
2016-08-22 18:15;153,55
2016-08-22 18:30;150,45
2016-08-22 18:45;143,65
2016-08-22 19:00;143,95
2016-08-22 19:15;133,75
2016-08-22 19:30;131,4
2016-08-22 19:45;124,95
2016-08-22 20:00;122,2
2016-08-22 20:15;116,35
2016-08-22 20:30;118,35
2016-08-22 20:45;114,1
2016-08-22 21:00;115
2016-08-22 21:15;108,65
2016-08-22 21:30;108,4
2016-08-22 21:45;106,85
2016-08-22 22:00;102,85
2016-08-22 22:15;103,25
2016-08-22 22:30;101,9
2016-08-22 22:45;99,05
2016-08-22 23:00;97
2016-08-22 23:15;97,9
2016-08-22 23:30;95,2
2016-08-22 23:45;99,1
2016-08-23 00:00;101,8
2016-08-23 00:15;98,4
2016-08-23 00:30;92,85
2016-08-23 00:45;89,4
2016-08-23 01:00;91,3
2016-08-23 01:15;89,4
2016-08-23 01:30;88,1
2016-08-23 01:45;90,45
2016-08-23 02:00;89,5
2016-08-23 02:15;89,35
2016-08-23 02:30;84,1
2016-08-23 02:45;77,85
2016-08-23 03:00;79,95
2016-08-23 03:15;78,55
2016-08-23 03:30;81,7
2016-08-23 03:45;80,5
2016-08-23 04:00;80,15
2016-08-23 04:15;80,6
2016-08-23 04:30;78,45
2016-08-23 04:45;79,2
2016-08-23 05:00;82,7
2016-08-23 05:15;81,15
2016-08-23 05:30;80,05
2016-08-23 05:45;80,9
2016-08-23 06:00;88,3
2016-08-23 06:15;89,35
2016-08-23 06:30;94
2016-08-23 06:45;90,35
2016-08-23 07:00;86,5
2016-08-23 07:15;89,05
2016-08-23 07:30;96,15
2016-08-23 07:45;96,25
2016-08-23 08:00;101,6
2016-08-23 08:15;116,9
2016-08-23 08:30;124,3
2016-08-23 08:45;127,75
2016-08-23 09:00;137,45
2016-08-23 09:15;150,35
2016-08-23 09:30;165,15
2016-08-23 09:45;224,65
2016-08-23 10:00;183,45
2016-08-23 10:15;189,45
2016-08-23 10:30;200,7
2016-08-23 10:45;193,65
2016-08-23 11:00;197,15
2016-08-23 11:15;242,1
2016-08-23 11:30;309,65
2016-08-23 11:45;320,05
2016-08-23 12:00;300,25
2016-08-23 12:15;281,15
2016-08-23 12:30;282,3
2016-08-23 12:45;279,1
2016-08-23 13:00;259,75
2016-08-23 13:15;252,35
2016-08-23 13:30;250,65
2016-08-23 13:45;253,15
2016-08-23 14:00;253,65
2016-08-23 14:15;246,55
2016-08-23 14:30;293,5
2016-08-23 14:45;300,8
2016-08-23 15:00;268
2016-08-23 15:15;249,2
2016-08-23 15:30;234,25
2016-08-23 15:45;208,85
2016-08-23 16:00;197,45
2016-08-23 16:15;200,2
2016-08-23 16:30;191,25
2016-08-23 16:45;199,1
2016-08-23 17:00;190,5
2016-08-23 17:15;179,5
2016-08-23 17:30;185,25
2016-08-23 17:45;178,5
2016-08-23 18:00;170,1
2016-08-23 18:15;172,4
2016-08-23 18:30;170,3
2016-08-23 18:45;169,65
2016-08-23 19:00;157,3
2016-08-23 19:15;155,1
2016-08-23 19:30;142,15
2016-08-23 19:45;141,1
2016-08-23 20:00;138,65
2016-08-23 20:15;135,5
2016-08-23 20:30;133,55
2016-08-23 20:45;129,85
2016-08-23 21:00;134,3
2016-08-23 21:15;132
2016-08-23 21:30;129,25
2016-08-23 21:45;132,85
2016-08-23 22:00;125,35
2016-08-23 22:15;121
2016-08-23 22:30;120,6
2016-08-23 22:45;117,1
2016-08-23 23:00;113,6
2016-08-23 23:15;113,9
2016-08-23 23:30;110,45
2016-08-23 23:45;105,9
2016-08-24 00:00;100,25
2016-08-24 00:15;96,3
2016-08-24 00:30;97
2016-08-24 00:45;97,85
2016-08-24 01:00;96,7
2016-08-24 01:15;95,9
2016-08-24 01:30;95,5
2016-08-24 01:45;92,25
2016-08-24 02:00;91,5
2016-08-24 02:15;93,05
2016-08-24 02:30;92,1
2016-08-24 02:45;93,2
2016-08-24 03:00;93,7
2016-08-24 03:15;91,4
2016-08-24 03:30;90,4
2016-08-24 03:45;93,3
2016-08-24 04:00;90,2
2016-08-24 04:15;91
2016-08-24 04:30;93,8
2016-08-24 04:45;97,2
2016-08-24 05:00;100,4
2016-08-24 05:15;100,25
2016-08-24 05:30;91,95
2016-08-24 05:45;99,1
2016-08-24 06:00;99,55
2016-08-24 06:15;103,95
2016-08-24 06:30;103,75
2016-08-24 06:45;106,1
2016-08-24 07:00;103,85
2016-08-24 07:15;112,05
2016-08-24 07:30;122,8
2016-08-24 07:45;122,3
2016-08-24 08:00;125,85
2016-08-24 08:15;132,6
2016-08-24 08:30;140,95
2016-08-24 08:45;146,95
2016-08-24 09:00;160,45
2016-08-24 09:15;165,7
2016-08-24 09:30;216,9
2016-08-24 09:45;191,65
2016-08-24 10:00;192,9
2016-08-24 10:15;186,75
2016-08-24 10:30;195,85
2016-08-24 10:45;215,3
2016-08-24 11:00;224
2016-08-24 11:15;276,5
2016-08-24 11:30;287
2016-08-24 11:45;269,25
2016-08-24 12:00;253,15
2016-08-24 12:15;242,6
2016-08-24 12:30;243,3
2016-08-24 12:45;248,15
2016-08-24 13:00;290,15
2016-08-24 13:15;277,2
2016-08-24 13:30;256,5
2016-08-24 13:45;244,4
2016-08-24 14:00;238,35
2016-08-24 14:15;227,85
2016-08-24 14:30;223,75
2016-08-24 14:45;268,7
2016-08-24 15:00;254,85
2016-08-24 15:15;228
2016-08-24 15:30;213,5
2016-08-24 15:45;197,9
2016-08-24 16:00;184,85
2016-08-24 16:15;184,1
2016-08-24 16:30;178
2016-08-24 16:45;174,85
2016-08-24 17:00;173,3
2016-08-24 17:15;165,7
2016-08-24 17:30;160,3
2016-08-24 17:45;157,05
2016-08-24 18:00;157,55
2016-08-24 18:15;155,7
2016-08-24 18:30;150,2
2016-08-24 18:45;146,9
2016-08-24 19:00;143,1
2016-08-24 19:15;139,6
2016-08-24 19:30;136,8
2016-08-24 19:45;129,75
2016-08-24 20:00;122,75
2016-08-24 20:15;119,8
2016-08-24 20:30;118,5
2016-08-24 20:45;117,65
2016-08-24 21:00;113,75
2016-08-24 21:15;113,55
2016-08-24 21:30;110,8
2016-08-24 21:45;110,55
2016-08-24 22:00;97,4
2016-08-24 22:15;97,5
2016-08-24 22:30;99,1
2016-08-24 22:45;96,2
2016-08-24 23:00;94
2016-08-24 23:15;93,5
2016-08-24 23:30;90,9
2016-08-24 23:45;90,85
2016-08-25 00:00;92,55
2016-08-25 00:15;88,25
2016-08-25 00:30;87,15
2016-08-25 00:45;91,1
2016-08-25 01:00;87,1
2016-08-25 01:15;88,35
2016-08-25 01:30;87,3
2016-08-25 01:45;88
2016-08-25 02:00;88,05
2016-08-25 02:15;85,2
2016-08-25 02:30;86,8
2016-08-25 02:45;85,6
2016-08-25 03:00;85,5
2016-08-25 03:15;85,85
2016-08-25 03:30;85,9
2016-08-25 03:45;86,25
2016-08-25 04:00;83,2
2016-08-25 04:15;83,1
2016-08-25 04:30;85,6
2016-08-25 04:45;84,1
2016-08-25 05:00;86,35
2016-08-25 05:15;86,3
2016-08-25 05:30;85,9
2016-08-25 05:45;86,15
2016-08-25 06:00;93,6
2016-08-25 06:15;95,5
2016-08-25 06:30;97,5
2016-08-25 06:45;96,55
2016-08-25 07:00;92,25
2016-08-25 07:15;104,5
2016-08-25 07:30;112
2016-08-25 07:45;117,5
2016-08-25 08:00;118,05
2016-08-25 08:15;131,75
2016-08-25 08:30;144,9
2016-08-25 08:45;149,15
2016-08-25 09:00;152,2
2016-08-25 09:15;163,1
2016-08-25 09:30;213,15
2016-08-25 09:45;238,3
2016-08-25 10:00;242,1
2016-08-25 10:15;221,75
2016-08-25 10:30;213,7
2016-08-25 10:45;213,3
2016-08-25 11:00;195,7
2016-08-25 11:15;207,35
2016-08-25 11:30;213,6
2016-08-25 11:45;268,05
2016-08-25 12:00;270,35
2016-08-25 12:15;233,45
2016-08-25 12:30;227,8
2016-08-25 12:45;220,75
2016-08-25 13:00;214,85
2016-08-25 13:15;231,35
2016-08-25 13:30;229,35
2016-08-25 13:45;289,95
2016-08-25 14:00;255,35
2016-08-25 14:15;241,45
2016-08-25 14:30;237
2016-08-25 14:45;244,5
2016-08-25 15:00;227,55
2016-08-25 15:15;222,05
2016-08-25 15:30;209,85
2016-08-25 15:45;199,2
2016-08-25 16:00;201,15
2016-08-25 16:15;183,1
2016-08-25 16:30;181,2
2016-08-25 16:45;183,95
2016-08-25 17:00;184,4
2016-08-25 17:15;182,65
2016-08-25 17:30;170,35
2016-08-25 17:45;162,35
2016-08-25 18:00;156,25
2016-08-25 18:15;161,25
2016-08-25 18:30;153,1
2016-08-25 18:45;148,3
2016-08-25 19:00;147,7
2016-08-25 19:15;134,65
2016-08-25 19:30;131,8
2016-08-25 19:45;128,75
2016-08-25 20:00;128,6
2016-08-25 20:15;128,15
2016-08-25 20:30;121,3
2016-08-25 20:45;123,05
2016-08-25 21:00;122,95
2016-08-25 21:15;118,15
2016-08-25 21:30;118,35
2016-08-25 21:45;114,55
2016-08-25 22:00;108,6
2016-08-25 22:15;112,05
2016-08-25 22:30;108,7
2016-08-25 22:45;106,35
2016-08-25 23:00;107,15
2016-08-25 23:15;104,65
2016-08-25 23:30;108,65
2016-08-25 23:45;105,9
2016-08-26 00:00;104,6
2016-08-26 00:15;99,25
2016-08-26 00:30;97,4
2016-08-26 00:45;89,5
2016-08-26 01:00;91,55
2016-08-26 01:15;87,45
2016-08-26 01:30;88,45
2016-08-26 01:45;87,45
2016-08-26 02:00;88,4
2016-08-26 02:15;86,55
2016-08-26 02:30;85,05
2016-08-26 02:45;86,6
2016-08-26 03:00;86,9
2016-08-26 03:15;86,8
2016-08-26 03:30;84,65
2016-08-26 03:45;86,9
2016-08-26 04:00;85,5
2016-08-26 04:15;85,55
2016-08-26 04:30;84,35
2016-08-26 04:45;86,4
2016-08-26 05:00;85,45
2016-08-26 05:15;88
2016-08-26 05:30;87,45
2016-08-26 05:45;88,8
2016-08-26 06:00;91,3
2016-08-26 06:15;92,95
2016-08-26 06:30;95,9
2016-08-26 06:45;96,6
2016-08-26 07:00;95,65
2016-08-26 07:15;97,4
2016-08-26 07:30;104,35
2016-08-26 07:45;169,65
2016-08-26 08:00;178,9
2016-08-26 08:15;168,1
2016-08-26 08:30;157,45
2016-08-26 08:45;143,4
2016-08-26 09:00;145,4
2016-08-26 09:15;147,6
2016-08-26 09:30;153,1
2016-08-26 09:45;173,2
2016-08-26 10:00;222,6
2016-08-26 10:15;205,8
2016-08-26 10:30;180,85
2016-08-26 10:45;194
2016-08-26 11:00;177,6
2016-08-26 11:15;182,7
2016-08-26 11:30;193,05
2016-08-26 11:45;197,2
2016-08-26 12:00;188,55
2016-08-26 12:15;200,9
2016-08-26 12:30;200,5
2016-08-26 12:45;193,65
2016-08-26 13:00;204,35
2016-08-26 13:15;197,5
2016-08-26 13:30;207,25
2016-08-26 13:45;193,35
2016-08-26 14:00;202,8
2016-08-26 14:15;199,35
2016-08-26 14:30;191,7
2016-08-26 14:45;191,2
2016-08-26 15:00;191,6
2016-08-26 15:15;183,1
2016-08-26 15:30;191,7
2016-08-26 15:45;191,4
2016-08-26 16:00;170
2016-08-26 16:15;173,45
2016-08-26 16:30;171,35
2016-08-26 16:45;161,55
2016-08-26 17:00;174,45
2016-08-26 17:15;160,3
2016-08-26 17:30;155,6
2016-08-26 17:45;152,3
2016-08-26 18:00;157,6
2016-08-26 18:15;150,7
2016-08-26 18:30;160,6
2016-08-26 18:45;155,55
2016-08-26 19:00;142,55
2016-08-26 19:15;116,95
2016-08-26 19:30;114,55
2016-08-26 19:45;112,4
2016-08-26 20:00;115,95
2016-08-26 20:15;105,85
2016-08-26 20:30;113,5
2016-08-26 20:45;108,2
2016-08-26 21:00;108,35
2016-08-26 21:15;108,45
2016-08-26 21:30;106,6
2016-08-26 21:45;102,9
2016-08-26 22:00;99,55
2016-08-26 22:15;100,9
2016-08-26 22:30;99,4
2016-08-26 22:45;97,25
2016-08-26 23:00;93,65
2016-08-26 23:15;91,6
2016-08-26 23:30;92,15
2016-08-26 23:45;96,4
2016-08-27 00:00;98,05
2016-08-27 00:15;93,95
2016-08-27 00:30;91,15
2016-08-27 00:45;90,3
2016-08-27 01:00;90,95
2016-08-27 01:15;83,95
2016-08-27 01:30;80,35
2016-08-27 01:45;81,65
2016-08-27 02:00;80,55
2016-08-27 02:15;78,35
2016-08-27 02:30;77,05
2016-08-27 02:45;77,7
2016-08-27 03:00;77
2016-08-27 03:15;78,1
2016-08-27 03:30;77,2
2016-08-27 03:45;76,35
2016-08-27 04:00;77,15
2016-08-27 04:15;77,5
2016-08-27 04:30;76,85
2016-08-27 04:45;76,05
2016-08-27 05:00;77,45
2016-08-27 05:15;76,9
2016-08-27 05:30;76,05
2016-08-27 05:45;82,55
2016-08-27 06:00;81,75
2016-08-27 06:15;83,7
2016-08-27 06:30;83
2016-08-27 06:45;81,15
2016-08-27 07:00;78,05
2016-08-27 07:15;78,25
2016-08-27 07:30;79,2
2016-08-27 07:45;134,3
2016-08-27 08:00;126,65
2016-08-27 08:15;101
2016-08-27 08:30;99,9
2016-08-27 08:45;98,6
2016-08-27 09:00;98,2
2016-08-27 09:15;101,8
2016-08-27 09:30;105,35
2016-08-27 09:45;111,1
2016-08-27 10:00;109,25
2016-08-27 10:15;109,25
2016-08-27 10:30;105,15
2016-08-27 10:45;107,45
2016-08-27 11:00;112,65
2016-08-27 11:15;111,4
2016-08-27 11:30;117,25
2016-08-27 11:45;122,95
2016-08-27 12:00;127
2016-08-27 12:15;126,95
2016-08-27 12:30;125,45
2016-08-27 12:45;124,25
2016-08-27 13:00;116,95
2016-08-27 13:15;117,15
2016-08-27 13:30;119,05
2016-08-27 13:45;117,05
2016-08-27 14:00;112,15
2016-08-27 14:15;113,3
2016-08-27 14:30;117,8
2016-08-27 14:45;111,05
2016-08-27 15:00;115,85
2016-08-27 15:15;111,75
2016-08-27 15:30;108,85
2016-08-27 15:45;117,75
2016-08-27 16:00;119,25
2016-08-27 16:15;102,05
2016-08-27 16:30;102,7
2016-08-27 16:45;105,55
2016-08-27 17:00;102,2
2016-08-27 17:15;94,2
2016-08-27 17:30;97,2
2016-08-27 17:45;96,3
2016-08-27 18:00;94,8
2016-08-27 18:15;100,25
2016-08-27 18:30;99,95
2016-08-27 18:45;102,5
2016-08-27 19:00;101,4
2016-08-27 19:15;96,25
2016-08-27 19:30;99,95
2016-08-27 19:45;93,4
2016-08-27 20:00;95,55
2016-08-27 20:15;100,25
2016-08-27 20:30;105,2
2016-08-27 20:45;107,8
2016-08-27 21:00;104,05
2016-08-27 21:15;105,45
2016-08-27 21:30;103,4
2016-08-27 21:45;101,55
2016-08-27 22:00;94,55
2016-08-27 22:15;96,7
2016-08-27 22:30;100
2016-08-27 22:45;101,2
2016-08-27 23:00;98,3
2016-08-27 23:15;89,2
2016-08-27 23:30;89,7
2016-08-27 23:45;86,9
2016-08-28 00:00;85,1
2016-08-28 00:15;84,3
2016-08-28 00:30;84,9
2016-08-28 00:45;85
2016-08-28 01:00;84,5
2016-08-28 01:15;83,75
2016-08-28 01:30;82,05
2016-08-28 01:45;81,9
2016-08-28 02:00;81,2
2016-08-28 02:15;80,7
2016-08-28 02:30;79,4
2016-08-28 02:45;83,3
2016-08-28 03:00;79,75
2016-08-28 03:15;79,35
2016-08-28 03:30;80,6
2016-08-28 03:45;78,75
2016-08-28 04:00;81,05
2016-08-28 04:15;80,4
2016-08-28 04:30;80,2
2016-08-28 04:45;79,5
2016-08-28 05:00;79,6
2016-08-28 05:15;78,6
2016-08-28 05:30;80,15
2016-08-28 05:45;80,05
2016-08-28 06:00;84
2016-08-28 06:15;82,75
2016-08-28 06:30;82,25
2016-08-28 06:45;82,2
2016-08-28 07:00;81,55
2016-08-28 07:15;79,85
2016-08-28 07:30;78,8
2016-08-28 07:45;78,7
2016-08-28 08:00;78
2016-08-28 08:15;81,95
2016-08-28 08:30;81,15
2016-08-28 08:45;82,05
2016-08-28 09:00;83,95
2016-08-28 09:15;80,4
2016-08-28 09:30;80,4
2016-08-28 09:45;82,45
2016-08-28 10:00;80,9
2016-08-28 10:15;84,15
2016-08-28 10:30;87,4
2016-08-28 10:45;91,75
2016-08-28 11:00;93,4
2016-08-28 11:15;93,6
2016-08-28 11:30;92,95
2016-08-28 11:45;90,2
2016-08-28 12:00;86,6
2016-08-28 12:15;94,05
2016-08-28 12:30;94,65
2016-08-28 12:45;102,3
2016-08-28 13:00;101,6
2016-08-28 13:15;99,9
2016-08-28 13:30;94,5
2016-08-28 13:45;96,6
2016-08-28 14:00;90,5
2016-08-28 14:15;93,1
2016-08-28 14:30;97,8
2016-08-28 14:45;94
2016-08-28 15:00;93,6
2016-08-28 15:15;90,1
2016-08-28 15:30;90,5
2016-08-28 15:45;94,5
2016-08-28 16:00;97,45
2016-08-28 16:15;90,1
2016-08-28 16:30;98,45
2016-08-28 16:45;95,8
2016-08-28 17:00;98,9
2016-08-28 17:15;99,35
2016-08-28 17:30;95,75
2016-08-28 17:45;95,6
2016-08-28 18:00;92
2016-08-28 18:15;88,2
2016-08-28 18:30;88,8
2016-08-28 18:45;90,7
2016-08-28 19:00;92,4
2016-08-28 19:15;101,2
2016-08-28 19:30;101,95
2016-08-28 19:45;94,15
2016-08-28 20:00;91,1
2016-08-28 20:15;95,1
2016-08-28 20:30;101,05
2016-08-28 20:45;95,7
2016-08-28 21:00;95,35
2016-08-28 21:15;92,4
2016-08-28 21:30;94,2
2016-08-28 21:45;89,65
2016-08-28 22:00;85,95
2016-08-28 22:15;89,7
2016-08-28 22:30;87,95
2016-08-28 22:45;87,65
2016-08-28 23:00;84,65
2016-08-28 23:15;85,35
2016-08-28 23:30;83,9
2016-08-28 23:45;84

